Location: Newark
(25.0000°N, 73.5000°E)
Time: 01:48:28
(UTC+00:00)

RS-15 - Pass Details

Date: 26 February 2020
Orbit: 1898 x 2146 km, 64.8° (Epoch: 08 April)

Event Time Altitude Azimuth Distance (km) Brightness Sun altitude
Rises 13:05:43 0° 189° (S) 5,424 10.6 -0.7°
Reaches altitude 10° 13:09:10 10° 185° (S) 4,395 10.1 -1.5°
Maximum altitude 13:20:00 56° 110° (ESE) 2,209 8.1 -3.9°
Drops below altitude 10° 13:30:30 10° 36° (NE) 4,287 9.4 -6.3°
Sets 13:33:48 0° 32° (NNE) 5,283 9.9 -7.0°
